Year,Month,Day,Hour,Minute,Value (Times are PST for temperature in C)
2010,08,02,00,00,11.50
2010,08,02,00,01,11.50
2010,08,02,00,02,11.50
2010,08,02,00,03,11.50
2010,08,02,00,04,11.60
2010,08,02,00,05,11.60
2010,08,02,00,06,11.60
2010,08,02,00,07,11.60
2010,08,02,00,08,11.60
2010,08,02,00,09,11.60
2010,08,02,00,10,11.70
2010,08,02,00,11,11.70
2010,08,02,00,12,11.70
2010,08,02,00,13,11.70
2010,08,02,00,14,11.70
2010,08,02,00,15,11.70
2010,08,02,00,16,11.70
2010,08,02,00,17,11.80
2010,08,02,00,18,11.80
2010,08,02,00,19,11.80
2010,08,02,00,20,11.80
2010,08,02,00,21,11.80
2010,08,02,00,22,11.80
2010,08,02,00,23,11.70
2010,08,02,00,24,11.70
2010,08,02,00,25,11.70
2010,08,02,00,26,11.60
2010,08,02,00,27,11.60
2010,08,02,00,28,11.60
2010,08,02,00,29,11.60
2010,08,02,00,30,11.50
2010,08,02,00,31,11.50
2010,08,02,00,32,11.50
2010,08,02,00,33,11.40
2010,08,02,00,34,11.50
2010,08,02,00,35,11.50
2010,08,02,00,36,11.50
2010,08,02,00,37,11.50
2010,08,02,00,38,11.50
2010,08,02,00,39,11.60
2010,08,02,00,40,11.60
2010,08,02,00,41,11.60
2010,08,02,00,42,11.60
2010,08,02,00,43,11.60
2010,08,02,00,44,11.60
2010,08,02,00,45,11.60
2010,08,02,00,46,11.60
2010,08,02,00,47,11.60
2010,08,02,00,48,11.60
2010,08,02,00,49,11.60
2010,08,02,00,50,11.60
2010,08,02,00,51,11.60
2010,08,02,00,52,11.50
2010,08,02,00,53,11.50
2010,08,02,00,54,11.50
2010,08,02,00,55,11.50
2010,08,02,00,56,11.40
2010,08,02,00,57,11.40
2010,08,02,00,58,11.40
2010,08,02,00,59,11.40
2010,08,02,01,00,11.30
2010,08,02,01,01,11.40
2010,08,02,01,02,11.40
2010,08,02,01,03,11.40
2010,08,02,01,04,11.40
2010,08,02,01,05,11.40
2010,08,02,01,06,11.40
2010,08,02,01,07,11.40
2010,08,02,01,08,11.40
2010,08,02,01,09,11.40
2010,08,02,01,10,11.40
2010,08,02,01,11,11.40
2010,08,02,01,12,11.40
2010,08,02,01,13,11.40
2010,08,02,01,14,11.40
2010,08,02,01,15,11.40
2010,08,02,01,16,11.40
2010,08,02,01,17,11.40
2010,08,02,01,18,11.50
2010,08,02,01,19,11.50
2010,08,02,01,20,11.60
2010,08,02,01,21,11.60
2010,08,02,01,22,11.70
2010,08,02,01,23,11.80
2010,08,02,01,24,11.90
2010,08,02,01,25,12.00
2010,08,02,01,26,12.10
2010,08,02,01,27,12.20
2010,08,02,01,28,12.30
2010,08,02,01,29,12.40
2010,08,02,01,30,12.40
2010,08,02,01,31,12.40
2010,08,02,01,32,12.40
2010,08,02,01,33,12.50
2010,08,02,01,34,12.50
2010,08,02,01,35,12.50
2010,08,02,01,36,12.50
2010,08,02,01,37,12.50
2010,08,02,01,38,12.50
2010,08,02,01,39,12.50
2010,08,02,01,40,12.60
2010,08,02,01,41,12.60
2010,08,02,01,42,12.60
2010,08,02,01,43,12.70
2010,08,02,01,44,12.70
2010,08,02,01,45,12.70
2010,08,02,01,46,12.70
2010,08,02,01,47,12.70
2010,08,02,01,48,12.70
2010,08,02,01,49,12.70
2010,08,02,01,50,12.70
2010,08,02,01,51,12.70
2010,08,02,01,52,12.70
2010,08,02,01,53,12.70
2010,08,02,01,54,12.70
2010,08,02,01,55,12.70
2010,08,02,01,56,12.70
2010,08,02,01,57,12.70
2010,08,02,01,58,12.70
2010,08,02,01,59,12.70
2010,08,02,02,00,12.70
2010,08,02,02,01,12.70
2010,08,02,02,02,12.70
2010,08,02,02,03,12.70
2010,08,02,02,04,12.70
2010,08,02,02,05,12.70
2010,08,02,02,06,12.70
2010,08,02,02,07,12.70
2010,08,02,02,08,12.70
2010,08,02,02,09,12.70
2010,08,02,02,10,12.60
2010,08,02,02,11,12.50
2010,08,02,02,12,12.40
2010,08,02,02,13,12.30
2010,08,02,02,14,12.30
2010,08,02,02,15,12.20
2010,08,02,02,16,12.10
2010,08,02,02,17,12.00
2010,08,02,02,18,12.00
2010,08,02,02,19,11.90
2010,08,02,02,20,11.80
2010,08,02,02,21,11.80
2010,08,02,02,22,11.70
2010,08,02,02,23,11.70
2010,08,02,02,24,11.60
2010,08,02,02,25,11.60
2010,08,02,02,26,11.70
2010,08,02,02,27,11.70
2010,08,02,02,28,11.70
2010,08,02,02,29,11.70
2010,08,02,02,30,11.70
2010,08,02,02,31,11.70
2010,08,02,02,32,11.70
2010,08,02,02,33,11.70
2010,08,02,02,34,11.70
2010,08,02,02,35,11.70
2010,08,02,02,36,11.70
2010,08,02,02,37,11.70
2010,08,02,02,38,11.70
2010,08,02,02,39,11.70
2010,08,02,02,40,11.60
2010,08,02,02,41,11.60
2010,08,02,02,42,11.60
2010,08,02,02,43,11.60
2010,08,02,02,44,11.60
2010,08,02,02,45,11.60
2010,08,02,02,46,11.60
2010,08,02,02,47,11.60
2010,08,02,02,48,11.60
2010,08,02,02,49,11.60
2010,08,02,02,50,11.60
2010,08,02,02,51,11.70
2010,08,02,02,52,11.70
2010,08,02,02,53,11.70
2010,08,02,02,54,11.70
2010,08,02,02,55,11.80
2010,08,02,02,56,11.80
2010,08,02,02,57,11.90
2010,08,02,02,58,12.00
2010,08,02,02,59,12.10
2010,08,02,03,00,12.10
2010,08,02,03,01,12.20
2010,08,02,03,02,12.20
2010,08,02,03,03,12.20
2010,08,02,03,04,12.20
2010,08,02,03,05,12.20
2010,08,02,03,06,12.20
2010,08,02,03,07,12.10
2010,08,02,03,08,12.20
2010,08,02,03,09,12.20
2010,08,02,03,10,12.20
2010,08,02,03,11,12.20
2010,08,02,03,12,12.20
2010,08,02,03,13,12.20
2010,08,02,03,14,12.20
2010,08,02,03,15,12.20
2010,08,02,03,16,12.20
2010,08,02,03,17,12.20
2010,08,02,03,18,12.10
2010,08,02,03,19,12.10
2010,08,02,03,20,12.10
2010,08,02,03,21,12.10
2010,08,02,03,22,12.10
2010,08,02,03,23,12.20
2010,08,02,03,24,12.10
2010,08,02,03,25,12.10
2010,08,02,03,26,12.10
2010,08,02,03,27,12.10
2010,08,02,03,28,12.10
2010,08,02,03,29,12.10
2010,08,02,03,30,12.10
2010,08,02,03,31,12.10
2010,08,02,03,32,12.20
2010,08,02,03,33,12.20
2010,08,02,03,34,12.20
2010,08,02,03,35,12.20
2010,08,02,03,36,12.20
2010,08,02,03,37,12.20
2010,08,02,03,38,12.20
2010,08,02,03,39,12.20
2010,08,02,03,40,12.20
2010,08,02,03,41,12.20
2010,08,02,03,42,12.20
2010,08,02,03,43,12.20
2010,08,02,03,44,12.20
2010,08,02,03,45,12.20
2010,08,02,03,46,12.20
2010,08,02,03,47,12.20
2010,08,02,03,48,12.20
2010,08,02,03,49,12.20
2010,08,02,03,50,12.20
2010,08,02,03,51,12.20
2010,08,02,03,52,12.30
2010,08,02,03,53,12.30
2010,08,02,03,54,12.30
2010,08,02,03,55,12.30
2010,08,02,03,56,12.30
2010,08,02,03,57,12.30
2010,08,02,03,58,12.30
2010,08,02,03,59,12.30
2010,08,02,04,00,12.30
2010,08,02,04,01,12.30
2010,08,02,04,02,12.30
2010,08,02,04,03,12.30
2010,08,02,04,04,12.30
2010,08,02,04,05,12.30
2010,08,02,04,06,12.30
2010,08,02,04,07,12.30
2010,08,02,04,08,12.30
2010,08,02,04,09,12.30
2010,08,02,04,10,12.30
2010,08,02,04,11,12.30
2010,08,02,04,12,12.30
2010,08,02,04,13,12.30
2010,08,02,04,14,12.30
2010,08,02,04,15,12.30
2010,08,02,04,16,12.40
2010,08,02,04,17,12.40
2010,08,02,04,18,12.40
2010,08,02,04,19,12.40
2010,08,02,04,20,12.40
2010,08,02,04,21,12.40
2010,08,02,04,22,12.40
2010,08,02,04,23,12.40
2010,08,02,04,24,12.40
2010,08,02,04,25,12.40
2010,08,02,04,26,12.40
2010,08,02,04,27,12.40
2010,08,02,04,28,12.50
2010,08,02,04,29,12.50
2010,08,02,04,30,12.50
2010,08,02,04,31,12.50
2010,08,02,04,32,12.50
2010,08,02,04,33,12.50
2010,08,02,04,34,12.50
2010,08,02,04,35,12.60
2010,08,02,04,36,12.60
2010,08,02,04,37,12.60
2010,08,02,04,38,12.60
2010,08,02,04,39,12.60
2010,08,02,04,40,12.60
2010,08,02,04,41,12.60
2010,08,02,04,42,12.60
2010,08,02,04,43,12.70
2010,08,02,04,44,12.70
2010,08,02,04,45,12.70
2010,08,02,04,46,12.80
2010,08,02,04,47,12.80
2010,08,02,04,48,12.80
2010,08,02,04,49,12.80
2010,08,02,04,50,12.90
2010,08,02,04,51,12.90
2010,08,02,04,52,12.90
2010,08,02,04,53,12.90
2010,08,02,04,54,13.00
2010,08,02,04,55,13.00
2010,08,02,04,56,13.00
2010,08,02,04,57,13.10
2010,08,02,04,58,13.10
2010,08,02,04,59,13.10
2010,08,02,05,00,13.10
2010,08,02,05,01,13.10
2010,08,02,05,02,13.10
2010,08,02,05,03,13.20
2010,08,02,05,04,13.20
2010,08,02,05,05,13.20
2010,08,02,05,06,13.20
2010,08,02,05,07,13.20
2010,08,02,05,08,13.20
2010,08,02,05,09,13.20
2010,08,02,05,10,13.20
2010,08,02,05,11,13.20
2010,08,02,05,12,13.20
2010,08,02,05,13,13.20
2010,08,02,05,14,13.30
2010,08,02,05,15,13.30
2010,08,02,05,16,13.30
2010,08,02,05,17,13.30
2010,08,02,05,18,13.30
2010,08,02,05,19,13.30
2010,08,02,05,20,13.30
2010,08,02,05,21,13.30
2010,08,02,05,22,13.30
2010,08,02,05,23,13.30
2010,08,02,05,24,13.30
2010,08,02,05,25,13.40
2010,08,02,05,26,13.40
2010,08,02,05,27,13.40
2010,08,02,05,28,13.40
2010,08,02,05,29,13.40
2010,08,02,05,30,13.40
2010,08,02,05,31,13.40
2010,08,02,05,32,13.40
2010,08,02,05,33,13.40
2010,08,02,05,34,13.40
2010,08,02,05,35,13.40
2010,08,02,05,36,13.40
2010,08,02,05,37,13.40
2010,08,02,05,38,13.40
2010,08,02,05,39,13.50
2010,08,02,05,40,13.50
2010,08,02,05,41,13.50
2010,08,02,05,42,13.50
2010,08,02,05,43,13.60
2010,08,02,05,44,13.60
2010,08,02,05,45,13.60
2010,08,02,05,46,13.60
2010,08,02,05,47,13.60
2010,08,02,05,48,13.60
2010,08,02,05,49,13.60
2010,08,02,05,50,13.60
2010,08,02,05,51,13.60
2010,08,02,05,52,13.60
2010,08,02,05,53,13.60
2010,08,02,05,54,13.60
2010,08,02,05,55,13.60
2010,08,02,05,56,13.60
2010,08,02,05,57,13.60
2010,08,02,05,58,13.70
2010,08,02,05,59,13.70
2010,08,02,06,00,13.70
2010,08,02,06,01,13.70
2010,08,02,06,02,13.70
2010,08,02,06,03,13.70
2010,08,02,06,04,13.70
2010,08,02,06,05,13.70
2010,08,02,06,06,13.70
2010,08,02,06,07,13.70
2010,08,02,06,08,13.70
2010,08,02,06,09,13.70
2010,08,02,06,10,13.70
2010,08,02,06,11,13.70
2010,08,02,06,12,13.70
2010,08,02,06,13,13.70
2010,08,02,06,14,13.70
2010,08,02,06,15,13.70
2010,08,02,06,16,13.70
2010,08,02,06,17,13.70
2010,08,02,06,18,13.70
2010,08,02,06,19,13.60
2010,08,02,06,20,13.60
2010,08,02,06,21,13.60
2010,08,02,06,22,13.60
2010,08,02,06,23,13.60
2010,08,02,06,24,13.60
2010,08,02,06,25,13.60
2010,08,02,06,26,13.50
2010,08,02,06,27,13.50
2010,08,02,06,28,13.50
2010,08,02,06,29,13.40
2010,08,02,06,30,13.40
2010,08,02,06,31,13.40
2010,08,02,06,32,13.40
2010,08,02,06,33,13.40
2010,08,02,06,34,13.40
2010,08,02,06,35,13.40
2010,08,02,06,36,13.40
2010,08,02,06,37,13.40
2010,08,02,06,38,13.40
2010,08,02,06,39,13.40
2010,08,02,06,40,13.40
2010,08,02,06,41,13.40
2010,08,02,06,42,13.40
2010,08,02,06,43,13.40
2010,08,02,06,44,13.40
2010,08,02,06,45,13.40
2010,08,02,06,46,13.40
2010,08,02,06,47,13.40
2010,08,02,06,48,13.50
2010,08,02,06,49,13.50
2010,08,02,06,50,13.50
2010,08,02,06,51,13.50
2010,08,02,06,52,13.50
2010,08,02,06,53,13.50
2010,08,02,06,54,13.60
2010,08,02,06,55,13.60
2010,08,02,06,56,13.60
2010,08,02,06,57,13.60
2010,08,02,06,58,13.60
2010,08,02,06,59,13.60
2010,08,02,07,00,13.60
2010,08,02,07,01,13.60
2010,08,02,07,02,13.60
2010,08,02,07,03,13.70
2010,08,02,07,04,13.70
2010,08,02,07,05,13.70
2010,08,02,07,06,13.70
2010,08,02,07,07,13.70
2010,08,02,07,08,13.70
2010,08,02,07,09,13.80
2010,08,02,07,10,13.80
2010,08,02,07,11,13.80
2010,08,02,07,12,13.80
2010,08,02,07,13,13.80
2010,08,02,07,14,13.80
2010,08,02,07,15,13.80
2010,08,02,07,16,13.80
2010,08,02,07,17,13.80
2010,08,02,07,18,13.80
2010,08,02,07,19,13.80
2010,08,02,07,20,13.80
2010,08,02,07,21,13.90
2010,08,02,07,22,13.90
2010,08,02,07,23,13.90
2010,08,02,07,24,13.90
2010,08,02,07,25,13.90
2010,08,02,07,26,13.90
2010,08,02,07,27,13.90
2010,08,02,07,28,13.90
2010,08,02,07,29,13.90
2010,08,02,07,30,13.90
2010,08,02,07,31,14.00
2010,08,02,07,32,14.00
2010,08,02,07,33,14.00
2010,08,02,07,34,14.00
2010,08,02,07,35,14.10
2010,08,02,07,36,14.10
2010,08,02,07,37,14.10
2010,08,02,07,38,14.20
2010,08,02,07,39,14.20
2010,08,02,07,40,14.20
2010,08,02,07,41,14.20
2010,08,02,07,42,14.20
2010,08,02,07,43,14.20
2010,08,02,07,44,14.20
2010,08,02,07,45,14.30
2010,08,02,07,46,14.30
2010,08,02,07,47,14.30
2010,08,02,07,48,14.30
2010,08,02,07,49,14.30
2010,08,02,07,50,14.30
2010,08,02,07,51,14.30
2010,08,02,07,52,14.40
2010,08,02,07,53,14.40
2010,08,02,07,54,14.40
2010,08,02,07,55,14.40
2010,08,02,07,56,14.50
2010,08,02,07,57,14.50
2010,08,02,07,58,14.50
2010,08,02,07,59,14.60
2010,08,02,08,00,14.60
2010,08,02,08,01,14.60
2010,08,02,08,02,14.60
2010,08,02,08,03,14.70
2010,08,02,08,04,14.70
2010,08,02,08,05,14.70
2010,08,02,08,06,14.70
2010,08,02,08,07,14.80
2010,08,02,08,08,14.80
2010,08,02,08,09,14.80
2010,08,02,08,10,14.90
2010,08,02,08,11,14.90
2010,08,02,08,12,15.00
2010,08,02,08,13,15.00
2010,08,02,08,14,15.00
2010,08,02,08,15,15.00
2010,08,02,08,16,15.00
2010,08,02,08,17,15.00
2010,08,02,08,18,15.00
2010,08,02,08,19,15.10
2010,08,02,08,20,15.10
2010,08,02,08,21,15.20
2010,08,02,08,22,15.30
2010,08,02,08,23,15.30
2010,08,02,08,24,15.30
2010,08,02,08,25,15.30
2010,08,02,08,26,15.30
2010,08,02,08,27,15.40
2010,08,02,08,28,15.40
2010,08,02,08,29,15.40
2010,08,02,08,30,15.50
2010,08,02,08,31,15.50
2010,08,02,08,32,15.50
2010,08,02,08,33,15.60
2010,08,02,08,34,15.60
2010,08,02,08,35,15.60
2010,08,02,08,36,15.60
2010,08,02,08,37,15.70
2010,08,02,08,38,15.70
2010,08,02,08,39,15.70
2010,08,02,08,40,15.80
2010,08,02,08,41,15.80
2010,08,02,08,42,15.80
2010,08,02,08,43,15.90
2010,08,02,08,44,15.90
2010,08,02,08,45,16.00
2010,08,02,08,46,16.10
2010,08,02,08,47,16.10
2010,08,02,08,48,16.10
2010,08,02,08,49,16.20
2010,08,02,08,50,16.20
2010,08,02,08,51,16.20
2010,08,02,08,52,16.20
2010,08,02,08,53,16.30
2010,08,02,08,54,16.30
2010,08,02,08,55,16.30
2010,08,02,08,56,16.30
2010,08,02,08,57,16.30
2010,08,02,08,58,16.40
2010,08,02,08,59,16.40
2010,08,02,09,00,16.40
2010,08,02,09,01,16.40
2010,08,02,09,02,16.40
2010,08,02,09,03,16.40
2010,08,02,09,04,16.50
2010,08,02,09,05,16.50
2010,08,02,09,06,16.50
2010,08,02,09,07,16.60
2010,08,02,09,08,16.60
2010,08,02,09,09,16.60
2010,08,02,09,10,16.70
2010,08,02,09,11,16.70
2010,08,02,09,12,16.80
2010,08,02,09,13,16.80
2010,08,02,09,14,16.90
2010,08,02,09,15,16.90
2010,08,02,09,16,17.00
2010,08,02,09,17,17.00
2010,08,02,09,18,17.10
2010,08,02,09,19,17.10
2010,08,02,09,20,17.20
2010,08,02,09,21,17.20
2010,08,02,09,22,17.30
2010,08,02,09,23,17.30
2010,08,02,09,24,17.30
2010,08,02,09,25,17.30
2010,08,02,09,26,17.40
2010,08,02,09,27,17.40
2010,08,02,09,28,17.50
2010,08,02,09,29,17.50
2010,08,02,09,30,17.60
2010,08,02,09,31,17.60
2010,08,02,09,32,17.70
2010,08,02,09,33,17.70
2010,08,02,09,34,17.80
2010,08,02,09,35,17.80
2010,08,02,09,36,17.90
2010,08,02,09,37,17.90
2010,08,02,09,38,18.00
2010,08,02,09,39,18.00
2010,08,02,09,40,18.10
2010,08,02,09,41,18.20
2010,08,02,09,42,18.20
2010,08,02,09,43,18.30
2010,08,02,09,44,18.30
2010,08,02,09,45,18.40
2010,08,02,09,46,18.40
2010,08,02,09,47,18.50
2010,08,02,09,48,18.50
2010,08,02,09,49,18.60
2010,08,02,09,50,18.70
2010,08,02,09,51,18.70
2010,08,02,09,52,18.80
2010,08,02,09,53,18.80
2010,08,02,09,54,18.80
2010,08,02,09,55,18.80
2010,08,02,09,56,18.80
2010,08,02,09,57,18.70
2010,08,02,09,58,18.70
2010,08,02,09,59,18.70
2010,08,02,10,00,18.70
2010,08,02,10,01,18.70
2010,08,02,10,02,18.80
2010,08,02,10,03,18.80
2010,08,02,10,04,18.80
2010,08,02,10,05,18.80
2010,08,02,10,06,18.80
2010,08,02,10,07,18.80
2010,08,02,10,08,18.70
2010,08,02,10,09,18.70
2010,08,02,10,10,18.60
2010,08,02,10,11,18.60
2010,08,02,10,12,18.60
2010,08,02,10,13,18.60
2010,08,02,10,14,18.60
2010,08,02,10,15,18.60
2010,08,02,10,16,18.60
2010,08,02,10,17,18.60
2010,08,02,10,18,18.60
2010,08,02,10,19,18.70
2010,08,02,10,20,18.70
2010,08,02,10,21,18.70
2010,08,02,10,22,18.70
2010,08,02,10,23,18.70
2010,08,02,10,24,18.70
2010,08,02,10,25,18.70
2010,08,02,10,26,18.80
2010,08,02,10,27,18.80
2010,08,02,10,28,18.80
2010,08,02,10,29,18.90
2010,08,02,10,30,18.90
2010,08,02,10,31,18.80
2010,08,02,10,32,18.70
2010,08,02,10,33,18.70
2010,08,02,10,34,18.70
2010,08,02,10,35,18.70
2010,08,02,10,36,18.70
2010,08,02,10,37,18.70
2010,08,02,10,38,18.70
2010,08,02,10,39,18.80
2010,08,02,10,40,18.70
2010,08,02,10,41,18.70
2010,08,02,10,42,18.70
2010,08,02,10,43,18.70
2010,08,02,10,44,18.70
2010,08,02,10,45,18.80
2010,08,02,10,46,18.80
2010,08,02,10,47,18.80
2010,08,02,10,48,18.80
2010,08,02,10,49,18.80
2010,08,02,10,50,18.80
2010,08,02,10,51,18.70
2010,08,02,10,52,18.70
2010,08,02,10,53,18.70
2010,08,02,10,54,18.80
2010,08,02,10,55,18.80
2010,08,02,10,56,18.80
2010,08,02,10,57,18.80
2010,08,02,10,58,18.80
2010,08,02,10,59,18.80
2010,08,02,11,00,18.80
2010,08,02,11,01,18.80
2010,08,02,11,02,18.90
2010,08,02,11,03,19.00
2010,08,02,11,04,19.10
2010,08,02,11,05,19.20
2010,08,02,11,06,19.30
2010,08,02,11,07,19.40
2010,08,02,11,08,19.50
2010,08,02,11,09,19.60
2010,08,02,11,10,19.70
2010,08,02,11,11,19.80
2010,08,02,11,12,19.90
2010,08,02,11,13,20.00
2010,08,02,11,14,20.10
2010,08,02,11,15,20.10
2010,08,02,11,16,20.10
2010,08,02,11,17,20.20
2010,08,02,11,18,20.20
2010,08,02,11,19,20.30
2010,08,02,11,20,20.20
2010,08,02,11,21,20.20
2010,08,02,11,22,20.20
2010,08,02,11,23,20.20
2010,08,02,11,24,20.30
2010,08,02,11,25,20.30
2010,08,02,11,26,20.40
2010,08,02,11,27,20.50
2010,08,02,11,28,20.60
2010,08,02,11,29,20.60
2010,08,02,11,30,20.50
2010,08,02,11,31,20.50
2010,08,02,11,32,20.50
2010,08,02,11,33,20.50
2010,08,02,11,34,20.50
2010,08,02,11,35,20.50
2010,08,02,11,36,20.40
2010,08,02,11,37,20.40
2010,08,02,11,38,20.40
2010,08,02,11,39,20.40
2010,08,02,11,40,20.30
2010,08,02,11,41,20.30
2010,08,02,11,42,20.20
2010,08,02,11,43,20.20
2010,08,02,11,44,20.20
2010,08,02,11,45,20.10
2010,08,02,11,46,20.10
2010,08,02,11,47,20.10
2010,08,02,11,48,20.10
2010,08,02,11,49,20.10
2010,08,02,11,50,20.00
2010,08,02,11,51,20.00
2010,08,02,11,52,20.00
2010,08,02,11,53,20.00
2010,08,02,11,54,20.00
2010,08,02,11,55,20.10
2010,08,02,11,56,20.10
2010,08,02,11,57,20.20
2010,08,02,11,58,20.20
2010,08,02,11,59,20.20
2010,08,02,12,00,20.20
2010,08,02,12,01,20.20
2010,08,02,12,02,20.10
2010,08,02,12,03,20.10
2010,08,02,12,04,20.20
2010,08,02,12,05,20.20
2010,08,02,12,06,20.30
2010,08,02,12,07,20.30
2010,08,02,12,08,20.30
2010,08,02,12,09,20.30
2010,08,02,12,10,20.40
2010,08,02,12,11,20.40
2010,08,02,12,12,20.40
2010,08,02,12,13,20.40
2010,08,02,12,14,20.40
2010,08,02,12,15,20.40
2010,08,02,12,16,20.40
2010,08,02,12,17,20.50
2010,08,02,12,18,20.60
2010,08,02,12,19,20.60
2010,08,02,12,20,20.60
2010,08,02,12,21,20.70
2010,08,02,12,22,20.70
2010,08,02,12,23,20.60
2010,08,02,12,24,20.60
2010,08,02,12,25,20.50
2010,08,02,12,26,20.50
2010,08,02,12,27,20.50
2010,08,02,12,28,20.50
2010,08,02,12,29,20.50
2010,08,02,12,30,20.60
2010,08,02,12,31,20.60
2010,08,02,12,32,20.60
2010,08,02,12,33,20.60
2010,08,02,12,34,20.60
2010,08,02,12,35,20.60
2010,08,02,12,36,20.60
2010,08,02,12,37,20.70
2010,08,02,12,38,20.70
2010,08,02,12,39,20.80
2010,08,02,12,40,20.80
2010,08,02,12,41,20.90
2010,08,02,12,42,20.90
2010,08,02,12,43,20.90
2010,08,02,12,44,20.90
2010,08,02,12,45,20.90
2010,08,02,12,46,20.90
2010,08,02,12,47,20.90
2010,08,02,12,48,20.80
2010,08,02,12,49,20.80
2010,08,02,12,50,20.80
2010,08,02,12,51,20.80
2010,08,02,12,52,20.80
2010,08,02,12,53,20.80
2010,08,02,12,54,20.80
2010,08,02,12,55,20.90
2010,08,02,12,56,20.90
2010,08,02,12,57,20.90
2010,08,02,12,58,20.90
2010,08,02,12,59,20.90
2010,08,02,13,00,20.90
2010,08,02,13,01,20.80
2010,08,02,13,02,20.80
2010,08,02,13,03,20.80
2010,08,02,13,04,20.70
2010,08,02,13,05,20.70
2010,08,02,13,06,20.60
2010,08,02,13,07,20.60
2010,08,02,13,08,20.60
2010,08,02,13,09,20.70
2010,08,02,13,10,20.80
2010,08,02,13,11,20.90
2010,08,02,13,12,21.00
2010,08,02,13,13,21.20
2010,08,02,13,14,21.30
2010,08,02,13,15,21.20
2010,08,02,13,16,21.20
2010,08,02,13,17,21.20
2010,08,02,13,18,21.30
2010,08,02,13,19,21.30
2010,08,02,13,20,21.50
2010,08,02,13,21,21.70
2010,08,02,13,22,22.00
2010,08,02,13,23,22.20
2010,08,02,13,24,22.30
2010,08,02,13,25,22.30
2010,08,02,13,26,22.30
2010,08,02,13,27,22.20
2010,08,02,13,28,22.20
2010,08,02,13,29,22.10
2010,08,02,13,30,22.00
2010,08,02,13,31,21.90
2010,08,02,13,32,21.80
2010,08,02,13,33,21.70
2010,08,02,13,34,21.80
2010,08,02,13,35,22.00
2010,08,02,13,36,22.00
2010,08,02,13,37,21.90
2010,08,02,13,38,21.90
2010,08,02,13,39,21.90
2010,08,02,13,40,21.80
2010,08,02,13,41,21.80
2010,08,02,13,42,21.70
2010,08,02,13,43,21.70
2010,08,02,13,44,21.70
2010,08,02,13,45,21.70
2010,08,02,13,46,21.80
2010,08,02,13,47,21.80
2010,08,02,13,48,21.80
2010,08,02,13,49,21.80
2010,08,02,13,50,21.80
2010,08,02,13,51,21.80
2010,08,02,13,52,21.80
2010,08,02,13,53,21.80
2010,08,02,13,54,21.80
2010,08,02,13,55,21.90
2010,08,02,13,56,22.00
2010,08,02,13,57,22.10
2010,08,02,13,58,22.20
2010,08,02,13,59,22.30
2010,08,02,14,00,22.30
2010,08,02,14,01,22.40
2010,08,02,14,02,22.50
2010,08,02,14,03,22.60
2010,08,02,14,04,22.70
2010,08,02,14,05,22.80
2010,08,02,14,06,22.80
2010,08,02,14,07,22.80
2010,08,02,14,08,22.70
2010,08,02,14,09,22.60
2010,08,02,14,10,22.50
2010,08,02,14,11,22.50
2010,08,02,14,12,22.50
2010,08,02,14,13,22.60
2010,08,02,14,14,22.60
2010,08,02,14,15,22.70
2010,08,02,14,16,22.80
2010,08,02,14,17,22.90
2010,08,02,14,18,23.00
2010,08,02,14,19,23.00
2010,08,02,14,20,23.00
2010,08,02,14,21,22.90
2010,08,02,14,22,22.90
2010,08,02,14,23,22.70
2010,08,02,14,24,22.60
2010,08,02,14,25,22.50
2010,08,02,14,26,22.40
2010,08,02,14,27,22.30
2010,08,02,14,28,22.40
2010,08,02,14,29,22.40
2010,08,02,14,30,22.50
2010,08,02,14,31,22.60
2010,08,02,14,32,22.80
2010,08,02,14,33,22.90
2010,08,02,14,34,23.00
2010,08,02,14,35,23.10
2010,08,02,14,36,23.10
2010,08,02,14,37,23.00
2010,08,02,14,38,22.90
2010,08,02,14,39,22.80
2010,08,02,14,40,22.70
2010,08,02,14,41,22.50
2010,08,02,14,42,22.50
2010,08,02,14,43,22.60
2010,08,02,14,44,22.70
2010,08,02,14,45,22.70
2010,08,02,14,46,22.70
2010,08,02,14,47,22.70
2010,08,02,14,48,22.70
2010,08,02,14,49,22.70
2010,08,02,14,50,22.70
2010,08,02,14,51,22.70
2010,08,02,14,52,22.80
2010,08,02,14,53,22.80
2010,08,02,14,54,22.80
2010,08,02,14,55,22.90
2010,08,02,14,56,22.80
2010,08,02,14,57,22.80
2010,08,02,14,58,22.80
2010,08,02,14,59,22.70
2010,08,02,15,00,22.60
2010,08,02,15,01,22.50
2010,08,02,15,02,22.30
2010,08,02,15,03,22.20
2010,08,02,15,04,22.20
2010,08,02,15,05,22.20
2010,08,02,15,06,22.10
2010,08,02,15,07,22.20
2010,08,02,15,08,22.20
2010,08,02,15,09,22.30
2010,08,02,15,10,22.30
2010,08,02,15,11,22.40
2010,08,02,15,12,22.40
2010,08,02,15,13,22.40
2010,08,02,15,14,22.40
2010,08,02,15,15,22.40
2010,08,02,15,16,22.50
2010,08,02,15,17,22.60
2010,08,02,15,18,22.60
2010,08,02,15,19,22.60
2010,08,02,15,20,22.60
2010,08,02,15,21,22.70
2010,08,02,15,22,22.70
2010,08,02,15,23,22.70
2010,08,02,15,24,22.70
2010,08,02,15,25,22.80
2010,08,02,15,26,22.90
2010,08,02,15,27,22.90
2010,08,02,15,28,22.90
2010,08,02,15,29,22.80
2010,08,02,15,30,22.70
2010,08,02,15,31,22.60
2010,08,02,15,32,22.60
2010,08,02,15,33,22.60
2010,08,02,15,34,22.60
2010,08,02,15,35,22.70
2010,08,02,15,36,22.70
2010,08,02,15,37,22.70
2010,08,02,15,38,22.70
2010,08,02,15,39,22.70
2010,08,02,15,40,22.70
2010,08,02,15,41,22.70
2010,08,02,15,42,22.80
2010,08,02,15,43,22.80
2010,08,02,15,44,22.90
2010,08,02,15,45,22.90
2010,08,02,15,46,22.90
2010,08,02,15,47,22.90
2010,08,02,15,48,22.90
2010,08,02,15,49,22.90
2010,08,02,15,50,22.90
2010,08,02,15,51,22.90
2010,08,02,15,52,22.90
2010,08,02,15,53,22.90
2010,08,02,15,54,22.80
2010,08,02,15,55,22.70
2010,08,02,15,56,22.70
2010,08,02,15,57,22.70
2010,08,02,15,58,22.70
2010,08,02,15,59,22.70
2010,08,02,16,00,22.70
2010,08,02,16,01,22.80
2010,08,02,16,02,22.80
2010,08,02,16,03,22.80
2010,08,02,16,04,22.80
2010,08,02,16,05,22.80
2010,08,02,16,06,22.70
2010,08,02,16,07,22.70
2010,08,02,16,08,22.70
2010,08,02,16,09,22.70
2010,08,02,16,10,22.80
2010,08,02,16,11,22.80
2010,08,02,16,12,23.00
2010,08,02,16,13,23.00
2010,08,02,16,14,23.10
2010,08,02,16,15,23.10
2010,08,02,16,16,23.20
2010,08,02,16,17,23.20
2010,08,02,16,18,23.20
2010,08,02,16,19,23.20
2010,08,02,16,20,23.20
2010,08,02,16,21,23.20
2010,08,02,16,22,23.20
2010,08,02,16,23,23.20
2010,08,02,16,24,23.10
2010,08,02,16,25,23.00
2010,08,02,16,26,23.00
2010,08,02,16,27,23.10
2010,08,02,16,28,23.10
2010,08,02,16,29,23.20
2010,08,02,16,30,23.20
2010,08,02,16,31,23.20
2010,08,02,16,32,23.30
2010,08,02,16,33,23.30
2010,08,02,16,34,23.40
2010,08,02,16,35,23.50
2010,08,02,16,36,23.60
2010,08,02,16,37,23.60
2010,08,02,16,38,23.70
2010,08,02,16,39,23.60
2010,08,02,16,40,23.60
2010,08,02,16,41,23.50
2010,08,02,16,42,23.50
2010,08,02,16,43,23.50
2010,08,02,16,44,23.50
2010,08,02,16,45,23.50
2010,08,02,16,46,23.50
2010,08,02,16,47,23.50
2010,08,02,16,48,23.40
2010,08,02,16,49,23.40
2010,08,02,16,50,23.40
2010,08,02,16,51,23.40
2010,08,02,16,52,23.40
2010,08,02,16,53,23.40
2010,08,02,16,54,23.30
2010,08,02,16,55,23.20
2010,08,02,16,56,23.20
2010,08,02,16,57,23.20
2010,08,02,16,58,23.20
2010,08,02,16,59,23.20
2010,08,02,17,00,23.20
2010,08,02,17,01,23.20
2010,08,02,17,02,23.20
2010,08,02,17,03,23.20
2010,08,02,17,04,23.20
2010,08,02,17,05,23.20
2010,08,02,17,06,23.10
2010,08,02,17,07,23.00
2010,08,02,17,08,23.00
2010,08,02,17,09,23.10
2010,08,02,17,10,23.00
2010,08,02,17,11,23.00
2010,08,02,17,12,23.00
2010,08,02,17,13,23.10
2010,08,02,17,14,23.10
2010,08,02,17,15,23.00
2010,08,02,17,16,22.90
2010,08,02,17,17,22.90
2010,08,02,17,18,22.90
2010,08,02,17,19,22.90